SCP
0 1 0 0 0 0 0 0 0 0 0 0 0 0 0 0 0 0 0 0 0 0 0 0 0 0 0 0 0 0 0 0 0 0 0 0 0 0 0 0 0 0 0
0 1 1 0 0 0 0 0 0 0 0 0 0 0 0 0 0 0 0 0 0 0 0 0 0 0 0 0 0 0 0 0 0 0 0 0 0 0 0 0 0 0 0
0 0 0 1 0 0 0 0 0 0 0 0 0 0 0 0 0 0 0 0 0 0 0 0 0 0 0 0 0 0 0 0 0 0 0 0 0 0 0 0 0 0 0
0 0 0 0 0 0 0 0 0 0 0 0 0 0 0 0 0 0 0 0 0 0 0 0 0 0 0 0 0 0 0 0 0 0 0 0 0 0 0 0 0 0 0
0 0 0 0 0 0 0 0 0 0 0 0 0 0 0 0 0 0 0 0 0 0 0 0 0 0 0 0 0 0 0 0 0 0 0 0 0 0 0 0 0 0 0
0 0 0 0 0 0 0 0 0 0 0 0 0 0 0 0 0 0 0 0 0 0 0 0 0 0 0 0 0 0 0 0 0 0 0 0 0 0 0 0 0 0 0
0 0 0 0 0 0 0 0 0 0 0 0 0 0 0 0 0 0 0 0 0 0 0 0 0 0 0 0 0 0 0 0 0 0 0 0 0 0 0 0 0 0 0
0 0 0 0 0 0 0 0 0 0 0 0 0 0 0 0 0 0 0 0 0 0 0 0 0 0 0 0 0 0 0 0 0 0 0 0 0 0 0 0 0 0 0
0 0 0 1 1 0 0 0 0 0 0 0 0 0 0 0 0 0 0 0 0 0 0 0 0 0 0 0 0 0 0 0 0 0 0 0 0 0 0 0 0 0 0
0 0 0 0 1 0 0 0 0 0 0 0 0 0 0 0 0 0 0 0 0 0 0 0 0 0 0 0 0 0 0 0 0 0 0 0 0 0 0 0 0 0 0
0 0 0 0 0 0 0 0 0 0 0 0 0 0 0 0 0 0 0 0 0 0 0 0 0 0 0 0 0 0 0 0 0 0 0 0 0 0 0 0 0 0 0
0 0 0 0 0 0 0 0 0 0 0 0 0 0 0 0 0 0 0 0 0 0 0 0 0 0 0 0 0 0 0 0 0 0 0 0 0 0 0 0 0 0 0
0 0 0 0 0 0 0 0 0 0 0 0 0 0 0 0 0 0 0 0 0 0 0 0 0 0 0 0 0 0 0 0 0 0 0 0 0 0 0 0 0 0 0
0 0 0 0 0 0 0 0 0 0 0 0 0 0 0 0 0 0 0 0 0 0 0 0 0 0 0 0 0 0 0 0 0 0 0 0 0 0 0 0 0 0 0
0 0 0 -0 0 0 0 0 0 0 0 0 0 0 0 0 0 0 0 0 0 0 0 0 0 0 0 0 0 0 0 0 0 0 0 0 0 0 0 0 0 0 0
0 0 0 0 0 0 0 0 0 0 0 0 0 0 0 0 0 0 0 0 0 0 0 0 0 0 0 0 0 0 0 0 0 0 0 0 0 0 0 0 0 0 0
0 0 0 0 0 0 0 0 0 0 0 0 0 0 0 0 0 0 0 0 0 0 0 0 0 0 0 0 0 0 0 0 0 0 0 0 0 0 0 0 0 0 0
0 0 0 0 0 0 0 0 0 0 0 0 0 0 0 0 0 0 0 0 0 0 0 0 0 0 0 0 0 0 0 0 0 0 0 0 0 0 0 0 0 0 0
0 0 0 0 0 0 0 0 0 0 0 0 0 0 0 0 0 0 0 0 0 0 0 0 0 0 0 0 0 0 0 0 0 0 0 0 0 0 0 0 0 0 0
0 0 0 0 0 0 0 0 0 0 0 0 0 0 0 0 0 0 0 0 0 0 0 0 0 0 0 0 0 0 0 0 0 0 0 0 0 0 0 0 0 0 0
0 0 0 0 0 0 0 0 0 0 0 0 0 0 0 0 0 0 0 0 0 0 0 0 0 0 0 0 0 0 0 0 0 0 0 0 0 0 0 0 0 0 0
0 0 0 0 0 0 0 0 0 0 0 0 0 0 0 0 0 0 0 0 0 0 0 0 0 0 0 0 0 0 0 0 0 0 0 0 0 0 0 0 0 0 0
0 0 0 0 0 0 0 0 0 0 0 0 0 0 0 0 0 0 0 0 0 0 0 0 0 0 0 0 0 0 0 0 0 0 0 0 0 0 0 0 0 0 0
0 0 0 0 0 0 0 0 -0 -0 -0 0 0 0 0 0 0 0 0 0 0 0 0 0 0 0 0 0 0 0 0 0 0 0 0 0 0 0 0 0 0 0 0
0 0 0 0 0 0 0 -0 -0 0 0 0 0 0 0 0 0 0 0 0 0 0 0 0 0 0 0 0 0 0 0 0 0 0 0 0 0 0 0 0 0 0 0
0 0 0 0 0 0 0 -0 0 0 0 0 0 0 0 0 0 0 0 0 0 0 0 0 0 0 0 0 0 0 0 0 0 0 0 0 0 0 0 0 0 0 0
Wind_Speed_500mb
88 86 81 81 81 80 80 75 70 66 60 54 49 42 41 47 40 43 42 40 39 40 47 45 41 40 42 40 38 39 40 44 44 42 45 42 39 35 30 30 32 36 35
80 93 89 87 85 84 83 81 77 75 67 58 63 52 47 47 52 48 45 46 41 42 45 50 52 49 46 45 44 45 44 45 45 46 48 48 47 45 41 38 39 36 43
64 72 88 100 96 90 87 83 79 73 65 65 63 71 67 62 60 58 55 53 46 40 46 49 52 53 52 48 47 47 47 48 48 48 46 50 51 53 51 47 47 48 43
62 61 66 76 104 104 93 86 81 74 70 66 70 74 73 68 63 59 60 57 51 44 43 49 50 51 52 58 56 56 54 55 53 53 53 52 53 55 57 57 57 57 55
63 61 61 85 69 92 105 91 86 80 78 72 70 70 71 65 63 59 59 59 56 52 48 47 51 51 52 53 58 62 65 60 59 56 55 54 56 58 60 62 64 66 68
62 54 56 43 62 71 70 95 87 84 84 76 69 64 61 58 56 60 58 57 57 55 53 53 52 53 53 55 55 56 56 59 59 58 56 56 58 58 54 54 60 67 76
64 55 52 52 42 62 105 77 88 88 87 81 70 46 44 47 52 56 57 57 57 57 56 57 58 58 56 54 56 57 56 57 60 63 66 65 61 60 57 51 40 52 95
61 53 44 45 42 55 61 64 64 81 86 84 71 59 39 46 56 61 59 57 56 55 57 59 60 61 61 58 58 57 57 59 61 60 60 63 64 63 62 60 61 60 47
53 60 60 57 55 35 49 70 88 87 65 70 73 52 23 25 57 64 65 61 58 57 56 59 61 63 63 61 60 60 58 57 56 58 58 55 53 54 57 56 57 56 54
46 47 46 55 65 69 56 60 72 83 82 73 67 81 39 22 29 22 45 54 60 64 63 64 65 64 61 60 61 60 57 54 54 54 56 55 54 54 56 55 52 52 52
50 43 48 48 56 57 77 62 77 94 102 88 103 91 79 44 30 12 23 33 38 43 51 59 62 64 64 60 58 55 52 50 49 50 52 52 53 53 54 53 52 51 50
43 37 38 45 49 44 47 57 63 95 82 96 97 65 48 65 69 61 49 42 43 37 34 34 44 50 51 54 54 54 50 51 49 49 53 55 57 58 60 60 57 55 56
40 39 38 37 47 51 52 51 49 55 83 95 78 65 50 48 69 71 67 64 61 62 64 59 48 53 55 60 58 60 53 49 48 51 55 61 63 65 65 63 61 60 54
33 34 45 55 28 43 40 54 74 62 72 78 81 88 73 63 70 65 56 63 51 66 69 65 58 65 59 60 62 59 55 53 53 55 58 64 66 65 64 60 65 63 55
38 32 36 52 59 44 45 47 57 72 74 67 79 76 80 68 66 65 64 56 59 39 51 63 61 64 64 63 69 66 60 62 59 59 61 64 62 61 55 58 56 56 53
31 36 36 50 51 56 35 53 56 52 63 73 75 75 79 76 71 63 63 59 61 59 40 50 61 58 60 61 58 53 56 53 56 56 54 51 48 44 40 39 37 38 37
30 36 28 40 46 42 29 48 58 58 65 68 74 76 76 77 61 56 59 52 47 49 58 49 43 46 52 44 38 37 35 33 33 29 29 27 23 23 24 25 24 21 16
26 32 26 13 34 40 30 29 39 69 54 69 78 69 76 56 59 56 50 46 44 48 57 55 47 44 40 35 32 30 30 31 32 33 30 27 23 25 26 27 26 24 24
22 31 29 14 20 46 18 22 31 53 54 47 50 45 48 47 35 32 39 40 43 46 51 51 51 44 36 32 31 32 34 33 29 29 25 21 22 26 27 25 21 18 18
23 28 28 16 13 39 37 41 34 31 34 40 28 27 24 25 25 32 30 30 30 30 36 35 33 37 37 35 31 30 30 27 23 17 14 16 18 19 18 17 17 18 19
18 21 16 18 17 28 32 42 50 44 37 37 32 26 23 19 19 13 11 12 10 13 16 21 31 37 38 39 35 29 27 24 20 18 20 21 19 18 19 17 16 15 15
21 18 17 15 23 32 46 54 51 41 43 36 35 30 26 24 23 20 18 17 19 15 17 24 30 32 33 31 28 24 23 26 26 24 23 22 24 21 18 15 15 16 17
27 12 27 36 54 58 58 59 57 52 46 40 41 38 37 33 29 25 25 23 26 26 25 21 25 28 30 27 24 25 26 23 17 24 25 22 20 19 19 19 20 20 20
48 54 59 63 65 57 53 54 49 51 49 44 42 38 36 35 32 24 21 21 25 27 26 25 22 25 23 23 23 20 21 21 18 18 23 26 23 23 22 22 23 24 26
70 67 66 65 62 52 51 54 48 50 50 48 43 36 31 30 31 27 17 21 22 22 22 18 16 15 14 18 19 20 25 24 21 21 23 21 23 24 24 25 26 25 29
63 63 61 55 53 54 47 45 37 36 36 36 33 30 27 24 22 17 9 12 10 13 13 13 13 12 15 15 16 19 19 21 21 19 23 25 24 21 19 30 31 30 31
Wind_Direction_500mb
238 232 226 221 218 216 215 215 218 219 221 219 211 224 228 218 201 212 224 230 240 223 211 207 202 211 219 221 225 223 225 230 238 241 240 245 251 254 254 255 253 247 245
239 242 229 224 223 222 219 219 220 219 221 222 207 209 222 222 206 211 221 229 234 228 224 219 216 215 220 228 230 229 229 232 238 244 243 245 250 258 258 263 262 256 249
245 247 228 228 227 225 224 219 220 222 220 220 216 211 220 226 220 214 216 229 233 231 229 225 223 226 223 220 228 230 233 236 240 244 248 248 253 257 257 262 263 266 259
255 255 257 240 220 229 222 218 214 217 221 219 217 215 221 225 224 220 223 226 235 236 232 230 230 230 229 227 228 230 235 236 240 243 247 251 254 257 260 262 262 263 265
255 259 259 241 244 238 218 213 210 215 218 222 221 218 224 224 225 225 227 231 234 241 240 237 237 237 236 235 237 238 238 241 241 243 249 253 257 260 262 263 264 265 262
253 257 257 260 244 245 208 203 208 209 219 224 220 220 221 223 224 229 231 234 238 240 244 246 242 241 241 241 241 241 241 240 240 243 247 249 254 258 263 263 269 265 259
249 251 257 253 255 233 228 215 206 208 215 221 212 210 220 226 229 229 233 236 237 241 243 246 250 250 247 246 245 246 246 245 245 245 248 252 255 259 260 260 263 271 263
250 244 248 251 247 231 229 211 217 205 208 214 202 191 198 214 226 232 234 236 240 243 247 250 251 251 253 251 249 249 250 250 251 252 253 255 256 259 261 261 266 277 269
257 246 245 239 238 252 242 237 229 228 216 199 207 192 180 212 227 233 234 238 244 248 254 256 256 256 255 255 254 252 252 253 254 254 255 256 257 258 264 265 265 268 265
257 246 242 242 237 242 246 252 222 213 228 197 207 213 210 202 203 207 231 240 245 249 254 256 257 258 258 258 257 258 257 254 254 255 256 258 257 257 260 265 266 267 269
252 250 250 241 236 239 244 248 242 226 219 218 208 205 218 216 206 185 200 222 231 246 253 258 256 256 259 260 258 257 256 255 253 253 254 254 253 256 261 265 268 270 276
250 247 246 243 232 225 227 237 233 227 214 228 212 213 214 234 242 236 234 243 249 249 246 257 258 257 255 256 258 258 254 253 252 248 248 250 253 256 260 263 269 271 271
252 254 243 255 232 234 224 222 226 216 213 217 212 212 216 244 234 236 245 249 252 249 251 255 243 242 245 246 245 245 246 248 249 249 249 249 251 255 258 261 264 265 266
256 257 249 237 249 219 223 218 218 217 217 214 227 232 229 219 234 228 221 239 247 250 249 250 252 248 241 244 246 250 251 252 253 253 252 252 253 255 256 257 261 264 266
259 258 264 249 243 268 217 217 214 220 223 227 221 223 234 229 245 244 242 252 257 242 238 241 239 243 244 244 241 247 249 253 254 255 255 254 255 256 252 252 251 257 260
262 253 273 250 243 252 232 219 218 226 223 220 228 235 233 242 241 247 250 255 251 247 239 228 228 236 244 247 241 247 247 251 256 256 253 248 247 246 239 236 242 236 247
256 255 267 240 240 244 237 203 219 228 230 237 239 241 238 240 241 243 249 246 245 248 241 241 236 232 233 234 237 238 238 240 229 218 206 204 197 203 206 213 221 226 221
245 251 261 269 234 235 230 207 219 226 234 236 245 232 227 235 239 233 235 238 245 240 240 239 225 211 213 215 220 219 210 214 210 194 183 188 195 202 209 212 215 219 229
252 249 255 284 235 228 252 198 206 206 203 222 227 212 206 211 221 231 236 240 240 242 243 239 229 215 204 197 192 188 183 186 194 194 206 217 218 213 212 214 209 204 209
249 263 241 286 270 214 235 177 197 183 214 194 190 189 185 203 224 236 234 234 228 228 233 230 220 203 192 180 189 190 183 184 191 194 191 179 177 178 180 176 174 170 165
242 255 243 262 251 199 186 169 169 159 167 162 150 149 148 149 148 157 165 176 184 190 189 190 184 180 178 177 185 185 190 183 177 178 173 168 168 166 165 167 167 174 178
203 198 207 230 184 166 155 150 140 146 131 127 129 123 122 126 133 135 138 138 132 129 151 160 167 169 171 174 178 184 194 177 159 167 168 171 167 175 189 198 206 209 212
148 159 147 154 138 138 137 127 127 125 123 123 119 120 122 120 117 118 115 116 112 114 119 129 152 157 162 164 166 173 170 171 167 174 176 194 201 206 214 218 218 214 218
126 135 130 127 122 118 119 117 120 120 120 119 118 123 124 118 110 108 110 116 119 117 116 124 134 145 147 155 160 174 180 182 199 200 204 212 217 218 219 222 223 223 230
113 111 111 110 108 108 109 107 111 118 120 124 126 125 121 120 113 109 117 120 118 124 128 132 149 148 164 177 181 192 209 209 216 211 210 214 220 220 223 229 233 224 233
99 99 99 100 101 99 97 98 103 113 121 123 126 128 130 131 121 113 117 112 128 134 146 164 162 173 188 197 201 207 221 222 222 223 231 230 233 227 224 233 236 237 235
Wind_Speed_850mb
88 86 81 81 81 80 80 75 70 66 60 54 49 42 41 47 40 43 42 40 39 40 47 45 41 40 42 40 38 39 40 44 44 42 45 42 39 35 30 30 32 36 35
80 93 89 87 85 84 83 81 77 75 67 58 63 52 47 47 52 48 45 46 41 42 45 50 52 49 46 45 44 45 44 45 45 46 48 48 47 45 41 38 39 36 43
64 72 88 100 96 90 87 83 79 73 65 65 63 71 67 62 60 58 55 53 46 40 46 49 52 53 52 48 47 47 47 48 48 48 46 50 51 53 51 47 47 48 43
62 61 66 76 104 104 93 86 81 74 70 66 70 74 73 68 63 59 60 57 51 44 43 49 50 51 52 58 56 56 54 55 53 53 53 52 53 55 57 57 57 57 55
63 61 61 85 69 92 105 91 86 80 78 72 70 70 71 65 63 59 59 59 56 52 48 47 51 51 52 53 58 62 65 60 59 56 55 54 56 58 60 62 64 66 68
62 54 56 43 62 71 70 95 87 84 84 76 69 64 61 58 56 60 58 57 57 55 53 53 52 53 53 55 55 56 56 59 59 58 56 56 58 58 54 54 60 67 76
64 55 52 52 42 62 105 77 88 88 87 81 70 46 44 47 52 56 57 57 57 57 56 57 58 58 56 54 56 57 56 57 60 63 66 65 61 60 57 51 40 52 95
61 53 44 45 42 55 61 64 64 81 86 84 71 59 39 46 56 61 59 57 56 55 57 59 60 61 61 58 58 57 57 59 61 60 60 63 64 63 62 60 61 60 47
53 60 60 57 55 35 49 70 88 87 65 70 73 52 23 25 57 64 65 61 58 57 56 59 61 63 63 61 60 60 58 57 56 58 58 55 53 54 57 56 57 56 54
46 47 46 55 65 69 56 60 72 83 82 73 67 81 39 22 29 22 45 54 60 64 63 64 65 64 61 60 61 60 57 54 54 54 56 55 54 54 56 55 52 52 52
50 43 48 48 56 57 77 62 77 94 102 88 103 91 79 44 30 12 23 33 38 43 51 59 62 64 64 60 58 55 52 50 49 50 52 52 53 53 54 53 52 51 50
43 37 38 45 49 44 47 57 63 95 82 96 97 65 48 65 69 61 49 42 43 37 34 34 44 50 51 54 54 54 50 51 49 49 53 55 57 58 60 60 57 55 56
40 39 38 37 47 51 52 51 49 55 83 95 78 65 50 48 69 71 67 64 61 62 64 59 48 53 55 60 58 60 53 49 48 51 55 61 63 65 65 63 61 60 54
33 34 45 55 28 43 40 54 74 62 72 78 81 88 73 63 70 65 56 63 51 66 69 65 58 65 59 60 62 59 55 53 53 55 58 64 66 65 64 60 65 63 55
38 32 36 52 59 44 45 47 57 72 74 67 79 76 80 68 66 65 64 56 59 39 51 63 61 64 64 63 69 66 60 62 59 59 61 64 62 61 55 58 56 56 53
31 36 36 50 51 56 35 53 56 52 63 73 75 75 79 76 71 63 63 59 61 59 40 50 61 58 60 61 58 53 56 53 56 56 54 51 48 44 40 39 37 38 37
30 36 28 40 46 42 29 48 58 58 65 68 74 76 76 77 61 56 59 52 47 49 58 49 43 46 52 44 38 37 35 33 33 29 29 27 23 23 24 25 24 21 16
26 32 26 13 34 40 30 29 39 69 54 69 78 69 76 56 59 56 50 46 44 48 57 55 47 44 40 35 32 30 30 31 32 33 30 27 23 25 26 27 26 24 24
22 31 29 14 20 46 18 22 31 53 54 47 50 45 48 47 35 32 39 40 43 46 51 51 51 44 36 32 31 32 34 33 29 29 25 21 22 26 27 25 21 18 18
23 28 28 16 13 39 37 41 34 31 34 40 28 27 24 25 25 32 30 30 30 30 36 35 33 37 37 35 31 30 30 27 23 17 14 16 18 19 18 17 17 18 19
18 21 16 18 17 28 32 42 50 44 37 37 32 26 23 19 19 13 11 12 10 13 16 21 31 37 38 39 35 29 27 24 20 18 20 21 19 18 19 17 16 15 15
21 18 17 15 23 32 46 54 51 41 43 36 35 30 26 24 23 20 18 17 19 15 17 24 30 32 33 31 28 24 23 26 26 24 23 22 24 21 18 15 15 16 17
27 12 27 36 54 58 58 59 57 52 46 40 41 38 37 33 29 25 25 23 26 26 25 21 25 28 30 27 24 25 26 23 17 24 25 22 20 19 19 19 20 20 20
48 54 59 63 65 57 53 54 49 51 49 44 42 38 36 35 32 24 21 21 25 27 26 25 22 25 23 23 23 20 21 21 18 18 23 26 23 23 22 22 23 24 26
70 67 66 65 62 52 51 54 48 50 50 48 43 36 31 30 31 27 17 21 22 22 22 18 16 15 14 18 19 20 25 24 21 21 23 21 23 24 24 25 26 25 29
63 63 61 55 53 54 47 45 37 36 36 36 33 30 27 24 22 17 9 12 10 13 13 13 13 12 15 15 16 19 19 21 21 19 23 25 24 21 19 30 31 30 31
Wind_Direction_850mb
238 232 226 221 218 216 215 215 218 219 221 219 211 224 228 218 201 212 224 230 240 223 211 207 202 211 219 221 225 223 225 230 238 241 240 245 251 254 254 255 253 247 245
239 242 229 224 223 222 219 219 220 219 221 222 207 209 222 222 206 211 221 229 234 228 224 219 216 215 220 228 230 229 229 232 238 244 243 245 250 258 258 263 262 256 249
245 247 228 228 227 225 224 219 220 222 220 220 216 211 220 226 220 214 216 229 233 231 229 225 223 226 223 220 228 230 233 236 240 244 248 248 253 257 257 262 263 266 259
255 255 257 240 220 229 222 218 214 217 221 219 217 215 221 225 224 220 223 226 235 236 232 230 230 230 229 227 228 230 235 236 240 243 247 251 254 257 260 262 262 263 265
255 259 259 241 244 238 218 213 210 215 218 222 221 218 224 224 225 225 227 231 234 241 240 237 237 237 236 235 237 238 238 241 241 243 249 253 257 260 262 263 264 265 262
253 257 257 260 244 245 208 203 208 209 219 224 220 220 221 223 224 229 231 234 238 240 244 246 242 241 241 241 241 241 241 240 240 243 247 249 254 258 263 263 269 265 259
249 251 257 253 255 233 228 215 206 208 215 221 212 210 220 226 229 229 233 236 237 241 243 246 250 250 247 246 245 246 246 245 245 245 248 252 255 259 260 260 263 271 263
250 244 248 251 247 231 229 211 217 205 208 214 202 191 198 214 226 232 234 236 240 243 247 250 251 251 253 251 249 249 250 250 251 252 253 255 256 259 261 261 266 277 269
257 246 245 239 238 252 242 237 229 228 216 199 207 192 180 212 227 233 234 238 244 248 254 256 256 256 255 255 254 252 252 253 254 254 255 256 257 258 264 265 265 268 265
257 246 242 242 237 242 246 252 222 213 228 197 207 213 210 202 203 207 231 240 245 249 254 256 257 258 258 258 257 258 257 254 254 255 256 258 257 257 260 265 266 267 269
252 250 250 241 236 239 244 248 242 226 219 218 208 205 218 216 206 185 200 222 231 246 253 258 256 256 259 260 258 257 256 255 253 253 254 254 253 256 261 265 268 270 276
250 247 246 243 232 225 227 237 233 227 214 228 212 213 214 234 242 236 234 243 249 249 246 257 258 257 255 256 258 258 254 253 252 248 248 250 253 256 260 263 269 271 271
252 254 243 255 232 234 224 222 226 216 213 217 212 212 216 244 234 236 245 249 252 249 251 255 243 242 245 246 245 245 246 248 249 249 249 249 251 255 258 261 264 265 266
256 257 249 237 249 219 223 218 218 217 217 214 227 232 229 219 234 228 221 239 247 250 249 250 252 248 241 244 246 250 251 252 253 253 252 252 253 255 256 257 261 264 266
259 258 264 249 243 268 217 217 214 220 223 227 221 223 234 229 245 244 242 252 257 242 238 241 239 243 244 244 241 247 249 253 254 255 255 254 255 256 252 252 251 257 260
262 253 273 250 243 252 232 219 218 226 223 220 228 235 233 242 241 247 250 255 251 247 239 228 228 236 244 247 241 247 247 251 256 256 253 248 247 246 239 236 242 236 247
256 255 267 240 240 244 237 203 219 228 230 237 239 241 238 240 241 243 249 246 245 248 241 241 236 232 233 234 237 238 238 240 229 218 206 204 197 203 206 213 221 226 221
245 251 261 269 234 235 230 207 219 226 234 236 245 232 227 235 239 233 235 238 245 240 240 239 225 211 213 215 220 219 210 214 210 194 183 188 195 202 209 212 215 219 229
252 249 255 284 235 228 252 198 206 206 203 222 227 212 206 211 221 231 236 240 240 242 243 239 229 215 204 197 192 188 183 186 194 194 206 217 218 213 212 214 209 204 209
249 263 241 286 270 214 235 177 197 183 214 194 190 189 185 203 224 236 234 234 228 228 233 230 220 203 192 180 189 190 183 184 191 194 191 179 177 178 180 176 174 170 165
242 255 243 262 251 199 186 169 169 159 167 162 150 149 148 149 148 157 165 176 184 190 189 190 184 180 178 177 185 185 190 183 177 178 173 168 168 166 165 167 167 174 178
203 198 207 230 184 166 155 150 140 146 131 127 129 123 122 126 133 135 138 138 132 129 151 160 167 169 171 174 178 184 194 177 159 167 168 171 167 175 189 198 206 209 212
148 159 147 154 138 138 137 127 127 125 123 123 119 120 122 120 117 118 115 116 112 114 119 129 152 157 162 164 166 173 170 171 167 174 176 194 201 206 214 218 218 214 218
126 135 130 127 122 118 119 117 120 120 120 119 118 123 124 118 110 108 110 116 119 117 116 124 134 145 147 155 160 174 180 182 199 200 204 212 217 218 219 222 223 223 230
113 111 111 110 108 108 109 107 111 118 120 124 126 125 121 120 113 109 117 120 118 124 128 132 149 148 164 177 181 192 209 209 216 211 210 214 220 220 223 229 233 224 233
99 99 99 100 101 99 97 98 103 113 121 123 126 128 130 131 121 113 117 112 128 134 146 164 162 173 188 197 201 207 221 222 222 223 231 230 233 227 224 233 236 237 235